Time,TemperatureF,DewpointF,PressureIn,WindDirection,WindDirectionDegrees,WindSpeedMPH,WindSpeedGustMPH,Humidity,HourlyPrecipIn,Conditions,Clouds,dailyrainin,SoftwareType,DateUTC
2013-05-02 00:03:00,70.0,-99.9,29.97,East,83,7.0,11.0,-999,-99.99,,,-99.99,,2013-05-02 04:03:00,
2013-05-02 00:12:00,69.0,-99.9,29.97,East,98,7.0,10.0,-999,-99.99,,,-99.99,,2013-05-02 04:12:00,
2013-05-02 00:23:00,69.0,-99.9,29.97,East,95,9.0,11.0,-999,-99.99,,,-99.99,,2013-05-02 04:23:00,
2013-05-02 00:33:00,69.0,-99.9,29.97,East,82,6.0,10.0,-999,-99.99,,,-99.99,,2013-05-02 04:33:00,
2013-05-02 00:43:00,69.0,-99.9,29.97,ENE,64,6.0,10.0,-999,-99.99,,,-99.99,,2013-05-02 04:43:00,
2013-05-02 00:52:00,69.0,-99.9,29.97,ENE,76,6.0,9.0,-999,-99.99,,,-99.99,,2013-05-02 04:52:00,
2013-05-02 01:02:00,69.0,-99.9,29.97,ENE,76,4.0,7.0,-999,-99.99,,,-99.99,,2013-05-02 05:02:00,
2013-05-02 01:12:00,69.0,-99.9,29.97,ENE,63,6.0,8.0,-999,-99.99,,,-99.99,,2013-05-02 05:12:00,
2013-05-02 01:22:00,69.0,-99.9,29.97,ENE,64,6.0,9.0,-999,-99.99,,,-99.99,,2013-05-02 05:22:00,
2013-05-02 01:32:00,69.0,-99.9,29.96,ENE,73,6.0,9.0,-999,-99.99,,,-99.99,,2013-05-02 05:32:00,
2013-05-02 01:42:00,69.0,-99.9,29.96,ENE,69,6.0,8.0,-999,-99.99,,,-99.99,,2013-05-02 05:42:00,
2013-05-02 01:52:00,69.0,-99.9,29.96,ENE,69,7.0,10.0,-999,-99.99,,,-99.99,,2013-05-02 05:52:00,
2013-05-02 02:02:00,69.0,-99.9,29.95,ENE,76,5.0,7.0,-999,-99.99,,,-99.99,,2013-05-02 06:02:00,
2013-05-02 02:12:00,69.0,-99.9,29.95,East,85,6.0,8.0,-999,-99.99,,,-99.99,,2013-05-02 06:12:00,
2013-05-02 02:22:00,69.0,-99.9,29.95,East,88,8.0,10.0,-999,-99.99,,,-99.99,,2013-05-02 06:22:00,
2013-05-02 02:32:00,69.0,-99.9,29.95,East,88,6.0,8.0,-999,-99.99,,,-99.99,,2013-05-02 06:32:00,
2013-05-02 02:42:00,69.0,-99.9,29.94,East,87,6.0,9.0,-999,-99.99,,,-99.99,,2013-05-02 06:42:00,
2013-05-02 02:52:00,69.0,-99.9,29.93,East,80,8.0,11.0,-999,-99.99,,,-99.99,,2013-05-02 06:52:00,
2013-05-02 03:02:00,69.0,-99.9,29.93,East,101,7.0,11.0,-999,-99.99,,,-99.99,,2013-05-02 07:02:00,
2013-05-02 03:11:00,69.0,-99.9,29.93,ESE,102,9.0,12.0,-999,-99.99,,,-99.99,,2013-05-02 07:11:00,
2013-05-02 03:22:00,69.0,-99.9,29.93,East,93,6.0,10.0,-999,-99.99,,,-99.99,,2013-05-02 07:22:00,
2013-05-02 03:32:00,69.0,-99.9,29.93,ESE,102,8.0,12.0,-999,-99.99,,,-99.99,,2013-05-02 07:32:00,
2013-05-02 03:42:00,69.0,-99.9,29.93,East,101,9.0,12.0,-999,-99.99,,,-99.99,,2013-05-02 07:42:00,
2013-05-02 03:52:00,69.0,-99.9,29.92,ENE,68,7.0,11.0,-999,-99.99,,,-99.99,,2013-05-02 07:52:00,
2013-05-02 04:02:00,68.0,-99.9,29.92,ENE,64,10.0,12.0,-999,-99.99,,,-99.99,,2013-05-02 08:02:00,
2013-05-02 04:11:00,68.0,-99.9,29.92,ENE,64,10.0,13.0,-999,-99.99,,,-99.99,,2013-05-02 08:11:00,
2013-05-02 04:22:00,68.0,-99.9,29.91,East,81,10.0,14.0,-999,-99.99,,,-99.99,,2013-05-02 08:22:00,
2013-05-02 04:32:00,68.0,-99.9,29.91,East,89,9.0,13.0,-999,-99.99,,,-99.99,,2013-05-02 08:32:00,
2013-05-02 04:42:00,67.0,-99.9,29.92,East,81,9.0,12.0,-999,-99.99,,,-99.99,,2013-05-02 08:42:00,
2013-05-02 04:52:00,67.0,-99.9,29.91,East,84,8.0,13.0,-999,-99.99,,,-99.99,,2013-05-02 08:52:00,
2013-05-02 05:02:00,67.0,-99.9,29.92,East,87,10.0,15.0,-999,-99.99,,,-99.99,,2013-05-02 09:02:00,
2013-05-02 05:12:00,67.0,-99.9,29.92,East,84,9.0,15.0,-999,-99.99,,,-99.99,,2013-05-02 09:12:00,
2013-05-02 05:22:00,67.0,-99.9,29.91,ENE,77,12.0,15.0,-999,-99.99,,,-99.99,,2013-05-02 09:22:00,
2013-05-02 05:33:00,67.0,-99.9,29.91,East,91,12.0,16.0,-999,-99.99,,,-99.99,,2013-05-02 09:33:00,
2013-05-02 05:43:00,67.0,-99.9,29.91,East,93,11.0,14.0,-999,-99.99,,,-99.99,,2013-05-02 09:43:00,
2013-05-02 05:52:00,67.0,-99.9,29.91,East,88,6.0,13.0,-999,-99.99,,,-99.99,,2013-05-02 09:52:00,
2013-05-02 06:03:00,66.0,-99.9,29.91,East,95,7.0,13.0,-999,-99.99,,,-99.99,,2013-05-02 10:03:00,
2013-05-02 06:12:00,67.0,-99.9,29.91,East,92,5.0,10.0,-999,-99.99,,,-99.99,,2013-05-02 10:12:00,
2013-05-02 06:23:00,67.0,-99.9,29.92,East,82,9.0,12.0,-999,-99.99,,,-99.99,,2013-05-02 10:23:00,
2013-05-02 06:33:00,66.0,-99.9,29.92,East,93,11.0,13.0,-999,-99.99,,,-99.99,,2013-05-02 10:33:00,
2013-05-02 06:42:00,66.0,-99.9,29.92,East,88,8.0,12.0,-999,-99.99,,,-99.99,,2013-05-02 10:42:00,
2013-05-02 06:53:00,66.0,-99.9,29.92,East,85,9.0,13.0,-999,-99.99,,,-99.99,,2013-05-02 10:53:00,
2013-05-02 07:02:00,67.0,-99.9,29.91,ENE,72,9.0,15.0,-999,-99.99,,,-99.99,,2013-05-02 11:02:00,
2013-05-02 07:12:00,67.0,-99.9,29.91,East,87,10.0,15.0,-999,-99.99,,,-99.99,,2013-05-02 11:12:00,
2013-05-02 07:22:00,66.0,-99.9,29.91,ESE,105,8.0,12.0,-999,-99.99,,,-99.99,,2013-05-02 11:22:00,
2013-05-02 07:32:00,67.0,-99.9,29.92,ESE,112,6.0,10.0,-999,-99.99,,,-99.99,,2013-05-02 11:32:00,
2013-05-02 07:42:00,67.0,-99.9,29.92,ESE,102,7.0,11.0,-999,-99.99,,,-99.99,,2013-05-02 11:42:00,
2013-05-02 07:52:00,67.0,-99.9,29.91,ESE,104,7.0,12.0,-999,-99.99,,,-99.99,,2013-05-02 11:52:00,
2013-05-02 08:01:00,67.0,-99.9,29.92,ESE,113,8.0,11.0,-999,-99.99,,,-99.99,,2013-05-02 12:01:00,
2013-05-02 08:12:00,67.0,-99.9,29.93,ESE,105,8.0,12.0,-999,-99.99,,,-99.99,,2013-05-02 12:12:00,
2013-05-02 08:22:00,67.0,-99.9,29.92,East,95,10.0,12.0,-999,-99.99,,,-99.99,,2013-05-02 12:22:00,
2013-05-02 08:32:00,68.0,-99.9,29.92,East,91,10.0,14.0,-999,-99.99,,,-99.99,,2013-05-02 12:32:00,
2013-05-02 08:42:00,68.0,-99.9,29.92,ESE,104,7.0,14.0,-999,-99.99,,,-99.99,,2013-05-02 12:42:00,
2013-05-02 08:52:00,68.0,-99.9,29.92,East,91,9.0,12.0,-999,-99.99,,,-99.99,,2013-05-02 12:52:00,
2013-05-02 09:01:00,68.0,-99.9,29.93,ESE,107,9.0,13.0,-999,-99.99,,,-99.99,,2013-05-02 13:01:00,
2013-05-02 09:11:00,69.0,-99.9,29.93,East,101,8.0,12.0,-999,-99.99,,,-99.99,,2013-05-02 13:11:00,
2013-05-02 09:22:00,69.0,-99.9,29.92,East,94,9.0,13.0,-999,-99.99,,,-99.99,,2013-05-02 13:22:00,
2013-05-02 09:32:00,69.0,-99.9,29.92,East,89,11.0,15.0,-999,-99.99,,,-99.99,,2013-05-02 13:32:00,
2013-05-02 09:42:00,69.0,-99.9,29.91,East,82,11.0,16.0,-999,-99.99,,,-99.99,,2013-05-02 13:42:00,
2013-05-02 09:52:00,69.0,-99.9,29.91,East,81,13.0,15.0,-999,-99.99,,,-99.99,,2013-05-02 13:52:00,
2013-05-02 10:02:00,70.0,-99.9,29.91,East,92,9.0,15.0,-999,-99.99,,,-99.99,,2013-05-02 14:02:00,
2013-05-02 10:11:00,70.0,-99.9,29.92,East,98,9.0,13.0,-999,-99.99,,,-99.99,,2013-05-02 14:11:00,
2013-05-02 10:22:00,71.0,-99.9,29.92,East,95,12.0,16.0,-999,-99.99,,,-99.99,,2013-05-02 14:22:00,
2013-05-02 10:32:00,71.0,-99.9,29.93,ESE,103,9.0,15.0,-999,-99.99,,,-99.99,,2013-05-02 14:32:00,
2013-05-02 10:43:00,71.0,-99.9,29.93,ESE,103,9.0,15.0,-999,-99.99,,,-99.99,,2013-05-02 14:43:00,
2013-05-02 10:52:00,71.0,-99.9,29.92,East,94,11.0,14.0,-999,-99.99,,,-99.99,,2013-05-02 14:52:00,
2013-05-02 11:02:00,71.0,-99.9,29.92,East,95,10.0,14.0,-999,-99.99,,,-99.99,,2013-05-02 15:02:00,
2013-05-02 11:12:00,71.0,-99.9,29.93,ESE,109,9.0,14.0,-999,-99.99,,,-99.99,,2013-05-02 15:12:00,
2013-05-02 11:22:00,72.0,-99.9,29.93,East,93,9.0,13.0,-999,-99.99,,,-99.99,,2013-05-02 15:22:00,
2013-05-02 11:33:00,72.0,-99.9,29.94,ESE,103,7.0,11.0,-999,-99.99,,,-99.99,,2013-05-02 15:33:00,
2013-05-02 11:43:00,72.0,-99.9,29.94,ESE,103,8.0,11.0,-999,-99.99,,,-99.99,,2013-05-02 15:43:00,
2013-05-02 12:03:00,72.0,-99.9,29.93,East,94,9.0,11.0,-999,-99.99,,,-99.99,,2013-05-02 16:03:00,
2013-05-02 12:13:00,72.0,-99.9,29.93,ESE,103,7.0,10.0,-999,-99.99,,,-99.99,,2013-05-02 16:13:00,
2013-05-02 12:23:00,72.0,-99.9,29.93,East,93,8.0,10.0,-999,-99.99,,,-99.99,,2013-05-02 16:23:00,
2013-05-02 12:32:00,73.0,-99.9,29.92,SE,131,8.0,10.0,-999,-99.99,,,-99.99,,2013-05-02 16:32:00,
2013-05-02 12:43:00,73.0,-99.9,29.92,SE,131,8.0,10.0,-999,-99.99,,,-99.99,,2013-05-02 16:43:00,
2013-05-02 12:52:00,73.0,-99.9,29.92,ESE,123,5.0,9.0,-999,-99.99,,,-99.99,,2013-05-02 16:52:00,
2013-05-02 13:02:00,74.0,-99.9,29.91,ESE,106,6.0,8.0,-999,-99.99,,,-99.99,,2013-05-02 17:02:00,
2013-05-02 13:12:00,73.0,-99.9,29.91,SE,125,8.0,10.0,-999,-99.99,,,-99.99,,2013-05-02 17:12:00,
2013-05-02 13:22:00,74.0,-99.9,29.90,ESE,109,7.0,10.0,-999,-99.99,,,-99.99,,2013-05-02 17:22:00,
2013-05-02 13:32:00,74.0,-99.9,29.89,SE,127,9.0,11.0,-999,-99.99,,,-99.99,,2013-05-02 17:32:00,
2013-05-02 13:42:00,74.0,-99.9,29.89,ESE,114,7.0,11.0,-999,-99.99,,,-99.99,,2013-05-02 17:42:00,
2013-05-02 13:52:00,74.0,-99.9,29.88,ESE,122,7.0,10.0,-999,-99.99,,,-99.99,,2013-05-02 17:52:00,
2013-05-02 14:02:00,74.0,-99.9,29.89,ESE,122,7.0,9.0,-999,-99.99,,,-99.99,,2013-05-02 18:02:00,
2013-05-02 14:12:00,74.0,-99.9,29.89,ESE,104,6.0,8.0,-999,-99.99,,,-99.99,,2013-05-02 18:12:00,
2013-05-02 14:22:00,74.0,-99.9,29.89,SE,125,7.0,10.0,-999,-99.99,,,-99.99,,2013-05-02 18:22:00,
2013-05-02 14:32:00,74.0,-99.9,29.89,SE,126,6.0,9.0,-999,-99.99,,,-99.99,,2013-05-02 18:32:00,
2013-05-02 14:42:00,74.0,-99.9,29.89,SE,135,5.0,7.0,-999,-99.99,,,-99.99,,2013-05-02 18:42:00,
2013-05-02 14:52:00,75.0,-99.9,29.88,SE,129,4.0,6.0,-999,-99.99,,,-99.99,,2013-05-02 18:52:00,
2013-05-02 15:01:00,75.0,-99.9,29.88,SSE,153,4.0,6.0,-999,-99.99,,,-99.99,,2013-05-02 19:01:00,
2013-05-02 15:11:00,75.0,-99.9,29.88,ENE,74,4.0,5.0,-999,-99.99,,,-99.99,,2013-05-02 19:11:00,
2013-05-02 15:22:00,76.0,-99.9,29.87,ESE,119,1.0,2.0,-999,-99.99,,,-99.99,,2013-05-02 19:22:00,
2013-05-02 15:32:00,76.0,-99.9,29.87,NW,319,2.0,3.0,-999,-99.99,,,-99.99,,2013-05-02 19:32:00,
2013-05-02 15:42:00,76.0,-99.9,29.87,WNW,293,3.0,4.0,-999,-99.99,,,-99.99,,2013-05-02 19:42:00,
2013-05-02 15:52:00,76.0,-99.9,29.87,WSW,249,3.0,4.0,-999,-99.99,,,-99.99,,2013-05-02 19:52:00,
2013-05-02 16:02:00,75.0,-99.9,29.87,WSW,253,5.0,8.0,-999,-99.99,,,-99.99,,2013-05-02 20:02:00,
2013-05-02 16:12:00,75.0,-99.9,29.87,WSW,246,7.0,8.0,-999,-99.99,,,-99.99,,2013-05-02 20:12:00,
2013-05-02 16:22:00,75.0,-99.9,29.86,WSW,254,6.0,8.0,-999,-99.99,,,-99.99,,2013-05-02 20:22:00,
2013-05-02 16:32:00,75.0,-99.9,29.86,West,260,5.0,7.0,-999,-99.99,,,-99.99,,2013-05-02 20:32:00,
2013-05-02 16:42:00,75.0,-99.9,29.85,West,268,6.0,9.0,-999,-99.99,,,-99.99,,2013-05-02 20:42:00,
2013-05-02 16:52:00,75.0,-99.9,29.86,West,273,8.0,10.0,-999,-99.99,,,-99.99,,2013-05-02 20:52:00,
2013-05-02 17:01:00,75.0,-99.9,29.84,WNW,297,8.0,10.0,-999,-99.99,,,-99.99,,2013-05-02 21:01:00,
2013-05-02 17:12:00,75.0,-99.9,29.84,WNW,299,7.0,9.0,-999,-99.99,,,-99.99,,2013-05-02 21:12:00,
2013-05-02 17:22:00,74.0,-99.9,29.84,WNW,296,9.0,11.0,-999,-99.99,,,-99.99,,2013-05-02 21:22:00,
2013-05-02 17:33:00,75.0,-99.9,29.83,NW,313,8.0,10.0,-999,-99.99,,,-99.99,,2013-05-02 21:33:00,
2013-05-02 17:43:00,75.0,-99.9,29.84,NW,312,7.0,10.0,-999,-99.99,,,-99.99,,2013-05-02 21:43:00,
2013-05-02 17:53:00,75.0,-99.9,29.83,NW,313,7.0,9.0,-999,-99.99,,,-99.99,,2013-05-02 21:53:00,
2013-05-02 18:03:00,75.0,-99.9,29.83,NW,316,7.0,10.0,-999,-99.99,,,-99.99,,2013-05-02 22:03:00,
2013-05-02 18:13:00,75.0,-99.9,29.83,NW,318,6.0,9.0,-999,-99.99,,,-99.99,,2013-05-02 22:13:00,
2013-05-02 18:22:00,75.0,-99.9,29.84,NNW,338,9.0,10.0,-999,-99.99,,,-99.99,,2013-05-02 22:22:00,
2013-05-02 18:33:00,74.0,-99.9,29.83,NNW,333,9.0,10.0,-999,-99.99,,,-99.99,,2013-05-02 22:33:00,
2013-05-02 18:42:00,74.0,-99.9,29.83,NNW,328,9.0,12.0,-999,-99.99,,,-99.99,,2013-05-02 22:42:00,
2013-05-02 18:53:00,75.0,-99.9,29.83,NNW,328,8.0,10.0,-999,-99.99,,,-99.99,,2013-05-02 22:53:00,
2013-05-02 19:02:00,75.0,-99.9,29.83,NNW,344,7.0,10.0,-999,-99.99,,,-99.99,,2013-05-02 23:02:00,
2013-05-02 19:12:00,75.0,-99.9,29.83,NNW,344,8.0,11.0,-999,-99.99,,,-99.99,,2013-05-02 23:12:00,
2013-05-02 19:22:00,75.0,-99.9,29.83,NNW,338,8.0,9.0,-999,-99.99,,,-99.99,,2013-05-02 23:22:00,
2013-05-02 19:32:00,75.0,-99.9,29.83,NNW,344,6.0,8.0,-999,-99.99,,,-99.99,,2013-05-02 23:32:00,
2013-05-02 19:42:00,75.0,-99.9,29.83,NNW,346,7.0,8.0,-999,-99.99,,,-99.99,,2013-05-02 23:42:00,
2013-05-02 19:52:00,75.0,-99.9,29.82,NNW,343,8.0,9.0,-999,-99.99,,,-99.99,,2013-05-02 23:52:00,
2013-05-02 20:01:00,75.0,-99.9,29.82,North,351,6.0,7.0,-999,-99.99,,,-99.99,,2013-05-03 00:01:00,
2013-05-02 20:12:00,75.0,-99.9,29.82,North,352,6.0,8.0,-999,-99.99,,,-99.99,,2013-05-03 00:12:00,
2013-05-02 20:22:00,75.0,-99.9,29.82,North,8,8.0,9.0,-999,-99.99,,,-99.99,,2013-05-03 00:22:00,
2013-05-02 20:32:00,75.0,-99.9,29.83,North,6,5.0,7.0,-999,-99.99,,,-99.99,,2013-05-03 00:32:00,
2013-05-02 20:42:00,75.0,-99.9,29.83,NNE,26,5.0,6.0,-999,-99.99,,,-99.99,,2013-05-03 00:42:00,
2013-05-02 20:52:00,75.0,-99.9,29.83,North,6,6.0,6.0,-999,-99.99,,,-99.99,,2013-05-03 00:52:00,
2013-05-02 21:02:00,75.0,-99.9,29.83,NNW,347,5.0,9.0,-999,-99.99,,,-99.99,,2013-05-03 01:02:00,
2013-05-02 21:11:00,75.0,-99.9,29.83,North,355,6.0,8.0,-999,-99.99,,,-99.99,,2013-05-03 01:11:00,
2013-05-02 21:22:00,74.0,-99.9,29.83,NE,54,8.0,10.0,-999,-99.99,,,-99.99,,2013-05-03 01:22:00,
2013-05-02 21:32:00,73.0,-99.9,29.83,ENE,71,8.0,10.0,-999,-99.99,,,-99.99,,2013-05-03 01:32:00,
2013-05-02 21:42:00,73.0,-99.9,29.83,East,84,8.0,10.0,-999,-99.99,,,-99.99,,2013-05-03 01:42:00,
2013-05-02 21:52:00,73.0,-99.9,29.83,East,79,6.0,9.0,-999,-99.99,,,-99.99,,2013-05-03 01:52:00,
2013-05-02 22:02:00,73.0,-99.9,29.83,NE,55,7.0,10.0,-999,-99.99,,,-99.99,,2013-05-03 02:02:00,
2013-05-02 22:11:00,73.0,-99.9,29.83,ENE,62,8.0,11.0,-999,-99.99,,,-99.99,,2013-05-03 02:11:00,
2013-05-02 22:22:00,72.0,-99.9,29.83,East,79,8.0,10.0,-999,-99.99,,,-99.99,,2013-05-03 02:22:00,
2013-05-02 22:32:00,72.0,-99.9,29.84,ENE,68,8.0,10.0,-999,-99.99,,,-99.99,,2013-05-03 02:32:00,
2013-05-02 22:42:00,72.0,-99.9,29.84,ENE,68,7.0,10.0,-999,-99.99,,,-99.99,,2013-05-03 02:42:00,
2013-05-02 22:52:00,72.0,-99.9,29.84,ENE,66,6.0,8.0,-999,-99.99,,,-99.99,,2013-05-03 02:52:00,
2013-05-02 23:01:00,71.0,-99.9,29.84,ENE,64,6.0,10.0,-999,-99.99,,,-99.99,,2013-05-03 03:01:00,
2013-05-02 23:11:00,71.0,-99.9,29.85,ENE,68,7.0,9.0,-999,-99.99,,,-99.99,,2013-05-03 03:11:00,
2013-05-02 23:22:00,71.0,-99.9,29.85,East,94,7.0,9.0,-999,-99.99,,,-99.99,,2013-05-03 03:22:00,
2013-05-02 23:33:00,71.0,-99.9,29.85,East,101,6.0,11.0,-999,-99.99,,,-99.99,,2013-05-03 03:33:00,
2013-05-02 23:43:00,71.0,-99.9,29.84,ESE,106,5.0,9.0,-999,-99.99,,,-99.99,,2013-05-03 03:43:00,
2013-05-02 23:53:00,71.0,-99.9,29.84,East,91,6.0,8.0,-999,-99.99,,,-99.99,,2013-05-03 03:53:00,